owner,sensor,date,latitude,longitude,vertical_datum,wind_speed,wind_to_direction,wind_speed_of_gust,qcFlag 
LOOP,urn:ioos:station:wmo:lopl1:1,2014-02-01T00:08:00Z,28.8850,-90.0250,10.0,6.0,83.0,7.0,'11111222,11111222,11111222' 
LOOP,urn:ioos:station:wmo:lopl1:1,2014-02-01T00:23:00Z,28.8850,-90.0250,10.0,6.4,87.0,7.1,'11111222,11111222,11111222' 
LOOP,urn:ioos:station:wmo:lopl1:1,2014-02-01T00:38:00Z,28.8850,-90.0250,10.0,6.9,89.0,7.6,'11111222,11111222,11111222' 
LOOP,urn:ioos:station:wmo:lopl1:1,2014-02-01T00:53:00Z,28.8850,-90.0250,10.0,7.9,90.0,8.7,'11111222,11111222,11111222' 
LOOP,urn:ioos:station:wmo:lopl1:1,2014-02-01T01:08:00Z,28.8850,-90.0250,10.0,7.3,91.0,8.5,'11111222,11111222,11111222' 
LOOP,urn:ioos:station:wmo:lopl1:1,2014-02-01T01:23:00Z,28.8850,-90.0250,10.0,7.1,91.0,8.0,'11111222,11111222,11111222' 
LOOP,urn:ioos:station:wmo:lopl1:1,2014-02-01T01:38:00Z,28.8850,-90.0250,10.0,7.1,92.0,7.8,'11111222,11111222,11111222' 
LOOP,urn:ioos:station:wmo:lopl1:1,2014-02-01T01:53:00Z,28.8850,-90.0250,10.0,6.8,88.0,7.4,'11111222,11111222,11111222' 
LOOP,urn:ioos:station:wmo:lopl1:1,2014-02-01T02:08:00Z,28.8850,-90.0250,10.0,6.5,86.0,7.4,'11111222,11111222,11111222' 
LOOP,urn:ioos:station:wmo:lopl1:1,2014-02-01T02:23:00Z,28.8850,-90.0250,10.0,5.9,84.0,6.6,'11111222,11111222,11111222' 
LOOP,urn:ioos:station:wmo:lopl1:1,2014-02-01T02:38:00Z,28.8850,-90.0250,10.0,5.4,82.0,6.3,'11111222,11111222,11111222' 
LOOP,urn:ioos:station:wmo:lopl1:1,2014-02-01T02:53:00Z,28.8850,-90.0250,10.0,5.2,78.0,6.3,'11111222,11111222,11111222' 
LOOP,urn:ioos:station:wmo:lopl1:1,2014-02-01T03:08:00Z,28.8850,-90.0250,10.0,5.3,86.0,6.4,'11111222,11111222,11111222' 
LOOP,urn:ioos:station:wmo:lopl1:1,2014-02-01T03:23:00Z,28.8850,-90.0250,10.0,5.1,79.0,5.9,'11111222,11111222,11111222' 
LOOP,urn:ioos:station:wmo:lopl1:1,2014-02-01T03:38:00Z,28.8850,-90.0250,10.0,4.6,78.0,5.6,'11111222,11111222,11111222' 
LOOP,urn:ioos:station:wmo:lopl1:1,2014-02-01T03:53:00Z,28.8850,-90.0250,10.0,4.3,76.0,5.3,'11111222,11111222,11111222' 
LOOP,urn:ioos:station:wmo:lopl1:1,2014-02-01T04:08:00Z,28.8850,-90.0250,10.0,4.7,76.0,5.4,'11111222,11111222,11111222' 
LOOP,urn:ioos:station:wmo:lopl1:1,2014-02-01T04:23:00Z,28.8850,-90.0250,10.0,4.7,77.0,5.5,'11111222,11111222,11111222' 
LOOP,urn:ioos:station:wmo:lopl1:1,2014-02-01T04:38:00Z,28.8850,-90.0250,10.0,4.4,77.0,5.3,'11111222,11111222,11111222' 
LOOP,urn:ioos:station:wmo:lopl1:1,2014-02-01T04:53:00Z,28.8850,-90.0250,10.0,5.1,68.0,5.9,'11111222,11111222,11111222' 
LOOP,urn:ioos:station:wmo:lopl1:1,2014-02-01T05:08:00Z,28.8850,-90.0250,10.0,5.0,66.0,5.6,'11111222,11111222,11111222' 
LOOP,urn:ioos:station:wmo:lopl1:1,2014-02-01T05:23:00Z,28.8850,-90.0250,10.0,5.0,66.0,5.7,'11111222,11111222,11111222' 
LOOP,urn:ioos:station:wmo:lopl1:1,2014-02-01T05:38:00Z,28.8850,-90.0250,10.0,5.0,67.0,5.6,'11111222,11111222,11111222' 
LOOP,urn:ioos:station:wmo:lopl1:1,2014-02-01T05:53:00Z,28.8850,-90.0250,10.0,4.5,74.0,5.2,'11111222,11111222,11111222' 
LOOP,urn:ioos:station:wmo:lopl1:1,2014-02-01T06:08:00Z,28.8850,-90.0250,10.0,4.1,69.0,4.9,'11111222,11111222,11111222' 
LOOP,urn:ioos:station:wmo:lopl1:1,2014-02-01T06:23:00Z,28.8850,-90.0250,10.0,3.7,76.0,4.3,'11111222,11111222,11111222' 
LOOP,urn:ioos:station:wmo:lopl1:1,2014-02-01T06:38:00Z,28.8850,-90.0250,10.0,3.8,79.0,4.7,'11111222,11111222,11111222' 
LOOP,urn:ioos:station:wmo:lopl1:1,2014-02-01T06:53:00Z,28.8850,-90.0250,10.0,4.6,88.0,4.8,'11111222,11111222,11111222' 
LOOP,urn:ioos:station:wmo:lopl1:1,2014-02-01T07:08:00Z,28.8850,-90.0250,10.0,4.6,89.0,4.9,'11111222,11111222,11111222' 
LOOP,urn:ioos:station:wmo:lopl1:1,2014-02-01T07:23:00Z,28.8850,-90.0250,10.0,4.3,111.0,4.9,'11111222,11111222,11111222' 
LOOP,urn:ioos:station:wmo:lopl1:1,2014-02-01T07:38:00Z,28.8850,-90.0250,10.0,3.8,123.0,4.1,'11111222,11111222,11111222' 
LOOP,urn:ioos:station:wmo:lopl1:1,2014-02-01T07:53:00Z,28.8850,-90.0250,10.0,3.9,120.0,4.6,'11111222,11111222,11111222' 
LOOP,urn:ioos:station:wmo:lopl1:1,2014-02-01T08:08:00Z,28.8850,-90.0250,10.0,4.5,127.0,5.1,'11111222,11111222,11111222' 
LOOP,urn:ioos:station:wmo:lopl1:1,2014-02-01T08:28:00Z,28.8850,-90.0250,10.0,4.3,135.0,4.9,'11111222,11111222,11111222' 
LOOP,urn:ioos:station:wmo:lopl1:1,2014-02-01T08:43:00Z,28.8850,-90.0250,10.0,4.2,135.0,4.5,'11111222,11111222,11111222' 
LOOP,urn:ioos:station:wmo:lopl1:1,2014-02-01T08:58:00Z,28.8850,-90.0250,10.0,3.4,140.0,3.7,'11111222,11111222,11111222' 
LOOP,urn:ioos:station:wmo:lopl1:1,2014-02-01T09:13:00Z,28.8850,-90.0250,10.0,3.7,148.0,4.1,'11111222,11111222,11111222' 
LOOP,urn:ioos:station:wmo:lopl1:1,2014-02-01T09:28:00Z,28.8850,-90.0250,10.0,4.5,139.0,4.8,'11111222,11111222,11111222' 
LOOP,urn:ioos:station:wmo:lopl1:1,2014-02-01T09:43:00Z,28.8850,-90.0250,10.0,5.0,145.0,5.3,'11111222,11111222,11111222' 
LOOP,urn:ioos:station:wmo:lopl1:1,2014-02-01T09:58:00Z,28.8850,-90.0250,10.0,4.8,143.0,5.1,'11111222,11111222,11111222' 
LOOP,urn:ioos:station:wmo:lopl1:1,2014-02-01T10:13:00Z,28.8850,-90.0250,10.0,5.2,154.0,5.5,'11111222,11111222,11111222' 
LOOP,urn:ioos:station:wmo:lopl1:1,2014-02-01T10:28:00Z,28.8850,-90.0250,10.0,4.5,157.0,5.1,'11111222,11111222,11111222' 
LOOP,urn:ioos:station:wmo:lopl1:1,2014-02-01T10:43:00Z,28.8850,-90.0250,10.0,4.5,165.0,4.8,'11111222,11111222,11111222' 
LOOP,urn:ioos:station:wmo:lopl1:1,2014-02-01T10:58:00Z,28.8850,-90.0250,10.0,4.0,167.0,4.2,'11111222,11111222,11111222' 
LOOP,urn:ioos:station:wmo:lopl1:1,2014-02-01T11:13:00Z,28.8850,-90.0250,10.0,3.6,168.0,4.0,'11111222,11111222,11111222' 
LOOP,urn:ioos:station:wmo:lopl1:1,2014-02-01T11:28:00Z,28.8850,-90.0250,10.0,3.5,162.0,4.0,'11111222,11111222,11111222' 
LOOP,urn:ioos:station:wmo:lopl1:1,2014-02-01T11:43:00Z,28.8850,-90.0250,10.0,5.3,158.0,5.7,'11111222,11111222,11111222' 
LOOP,urn:ioos:station:wmo:lopl1:1,2014-02-01T11:58:00Z,28.8850,-90.0250,10.0,6.2,160.0,6.4,'11111222,11111222,11111222' 
LOOP,urn:ioos:station:wmo:lopl1:1,2014-02-01T12:13:00Z,28.8850,-90.0250,10.0,6.5,161.0,6.7,'11111222,11111222,11111222' 
LOOP,urn:ioos:station:wmo:lopl1:1,2014-02-01T12:28:00Z,28.8850,-90.0250,10.0,7.1,159.0,7.3,'11111222,11111222,11111222' 
LOOP,urn:ioos:station:wmo:lopl1:1,2014-02-01T12:43:00Z,28.8850,-90.0250,10.0,7.2,156.0,7.3,'11111222,11111222,11111222' 
LOOP,urn:ioos:station:wmo:lopl1:1,2014-02-01T12:58:00Z,28.8850,-90.0250,10.0,8.0,156.0,8.2,'11111222,11111222,11111222' 
LOOP,urn:ioos:station:wmo:lopl1:1,2014-02-01T13:13:00Z,28.8850,-90.0250,10.0,8.3,156.0,8.6,'11111222,11111222,11111222' 
LOOP,urn:ioos:station:wmo:lopl1:1,2014-02-01T13:28:00Z,28.8850,-90.0250,10.0,8.6,157.0,9.0,'11111222,11111222,11111222' 
LOOP,urn:ioos:station:wmo:lopl1:1,2014-02-01T13:48:00Z,28.8850,-90.0250,10.0,9.2,154.0,9.5,'11111222,11111222,11111222' 
LOOP,urn:ioos:station:wmo:lopl1:1,2014-02-01T14:03:00Z,28.8850,-90.0250,10.0,8.8,153.0,9.2,'11111222,11111222,11111222' 
LOOP,urn:ioos:station:wmo:lopl1:1,2014-02-01T14:18:00Z,28.8850,-90.0250,10.0,7.9,153.0,8.2,'11111222,11111222,11111222' 
LOOP,urn:ioos:station:wmo:lopl1:1,2014-02-01T14:33:00Z,28.8850,-90.0250,10.0,7.3,152.0,7.6,'11111222,11111222,11111222' 
LOOP,urn:ioos:station:wmo:lopl1:1,2014-02-01T14:48:00Z,28.8850,-90.0250,10.0,7.0,150.0,7.2,'11111222,11111222,11111222' 
LOOP,urn:ioos:station:wmo:lopl1:1,2014-02-01T15:03:00Z,28.8850,-90.0250,10.0,6.5,147.0,6.7,'11111222,11111222,11111222' 
LOOP,urn:ioos:station:wmo:lopl1:1,2014-02-01T15:18:00Z,28.8850,-90.0250,10.0,6.6,147.0,6.9,'11111222,11111222,11111222' 
LOOP,urn:ioos:station:wmo:lopl1:1,2014-02-01T15:33:00Z,28.8850,-90.0250,10.0,6.9,143.0,7.2,'11111222,11111222,11111222' 
LOOP,urn:ioos:station:wmo:lopl1:1,2014-02-01T15:48:00Z,28.8850,-90.0250,10.0,6.6,145.0,7.2,'11111222,11111222,11111222' 
LOOP,urn:ioos:station:wmo:lopl1:1,2014-02-01T16:03:00Z,28.8850,-90.0250,10.0,6.6,147.0,7.0,'11111222,11111222,11111222' 
LOOP,urn:ioos:station:wmo:lopl1:1,2014-02-01T16:18:00Z,28.8850,-90.0250,10.0,6.4,143.0,6.9,'11111222,11111222,11111222' 
LOOP,urn:ioos:station:wmo:lopl1:1,2014-02-01T16:33:00Z,28.8850,-90.0250,10.0,6.3,149.0,6.7,'11111222,11111222,11111222' 
LOOP,urn:ioos:station:wmo:lopl1:1,2014-02-01T16:48:00Z,28.8850,-90.0250,10.0,6.3,148.0,6.8,'11111222,11111222,11111222' 
LOOP,urn:ioos:station:wmo:lopl1:1,2014-02-01T17:03:00Z,28.8850,-90.0250,10.0,6.7,141.0,7.1,'11111222,11111222,11111222' 
LOOP,urn:ioos:station:wmo:lopl1:1,2014-02-01T17:18:00Z,28.8850,-90.0250,10.0,6.8,141.0,7.0,'11111222,11111222,11111222' 
LOOP,urn:ioos:station:wmo:lopl1:1,2014-02-01T17:33:00Z,28.8850,-90.0250,10.0,6.9,137.0,7.1,'11111222,11111222,11111222' 
LOOP,urn:ioos:station:wmo:lopl1:1,2014-02-01T17:48:00Z,28.8850,-90.0250,10.0,7.4,139.0,7.6,'11111222,11111222,11111222' 
LOOP,urn:ioos:station:wmo:lopl1:1,2014-02-01T18:03:00Z,28.8850,-90.0250,10.0,7.1,137.0,7.2,'11111222,11111222,11111222' 
LOOP,urn:ioos:station:wmo:lopl1:1,2014-02-01T18:18:00Z,28.8850,-90.0250,10.0,6.8,131.0,7.0,'11111222,11111222,11111222' 
LOOP,urn:ioos:station:wmo:lopl1:1,2014-02-01T18:33:00Z,28.8850,-90.0250,10.0,7.6,132.0,8.0,'11111222,11111222,11111222' 
LOOP,urn:ioos:station:wmo:lopl1:1,2014-02-01T18:48:00Z,28.8850,-90.0250,10.0,8.5,139.0,8.6,'11111222,11111222,11111222' 
LOOP,urn:ioos:station:wmo:lopl1:1,2014-02-01T19:03:00Z,28.8850,-90.0250,10.0,8.9,143.0,9.1,'11111222,11111222,11111222' 
LOOP,urn:ioos:station:wmo:lopl1:1,2014-02-01T19:18:00Z,28.8850,-90.0250,10.0,8.6,144.0,8.8,'11111222,11111222,11111222' 
LOOP,urn:ioos:station:wmo:lopl1:1,2014-02-01T19:33:00Z,28.8850,-90.0250,10.0,8.7,145.0,8.9,'11111222,11111222,11111222' 
LOOP,urn:ioos:station:wmo:lopl1:1,2014-02-01T19:53:00Z,28.8850,-90.0250,10.0,8.3,142.0,8.6,'11111222,11111222,11111222' 
LOOP,urn:ioos:station:wmo:lopl1:1,2014-02-01T20:08:00Z,28.8850,-90.0250,10.0,8.3,144.0,8.5,'11111222,11111222,11111222' 
LOOP,urn:ioos:station:wmo:lopl1:1,2014-02-01T20:23:00Z,28.8850,-90.0250,10.0,8.2,144.0,8.5,'11111222,11111222,11111222' 
LOOP,urn:ioos:station:wmo:lopl1:1,2014-02-01T20:38:00Z,28.8850,-90.0250,10.0,8.0,145.0,8.3,'11111222,11111222,11111222' 
LOOP,urn:ioos:station:wmo:lopl1:1,2014-02-01T20:53:00Z,28.8850,-90.0250,10.0,7.3,148.0,7.6,'11111222,11111222,11111222' 
LOOP,urn:ioos:station:wmo:lopl1:1,2014-02-01T21:08:00Z,28.8850,-90.0250,10.0,7.6,150.0,7.8,'11111222,11111222,11111222' 
LOOP,urn:ioos:station:wmo:lopl1:1,2014-02-01T21:23:00Z,28.8850,-90.0250,10.0,7.8,152.0,8.0,'11111222,11111222,11111222' 
LOOP,urn:ioos:station:wmo:lopl1:1,2014-02-01T21:38:00Z,28.8850,-90.0250,10.0,7.9,144.0,8.1,'11111222,11111222,11111222' 
LOOP,urn:ioos:station:wmo:lopl1:1,2014-02-01T21:53:00Z,28.8850,-90.0250,10.0,8.0,143.0,8.4,'11111222,11111222,11111222' 
LOOP,urn:ioos:station:wmo:lopl1:1,2014-02-01T22:08:00Z,28.8850,-90.0250,10.0,8.2,138.0,8.4,'11111222,11111222,11111222' 
LOOP,urn:ioos:station:wmo:lopl1:1,2014-02-01T22:23:00Z,28.8850,-90.0250,10.0,8.4,136.0,8.6,'11111222,11111222,11111222' 
LOOP,urn:ioos:station:wmo:lopl1:1,2014-02-01T22:38:00Z,28.8850,-90.0250,10.0,8.4,134.0,8.6,'11111222,11111222,11111222' 
LOOP,urn:ioos:station:wmo:lopl1:1,2014-02-01T22:53:00Z,28.8850,-90.0250,10.0,8.5,130.0,8.7,'11111222,11111222,11111222' 
LOOP,urn:ioos:station:wmo:lopl1:1,2014-02-01T23:08:00Z,28.8850,-90.0250,10.0,8.8,126.0,9.1,'11111222,11111222,11111222' 
LOOP,urn:ioos:station:wmo:lopl1:1,2014-02-01T23:23:00Z,28.8850,-90.0250,10.0,10.2,128.0,10.5,'11111222,11111222,11111222' 
LOOP,urn:ioos:station:wmo:lopl1:1,2014-02-01T23:43:00Z,28.8850,-90.0250,10.0,9.8,126.0,10.7,'11111222,11111222,11111222' 
LOOP,urn:ioos:station:wmo:lopl1:1,2014-02-01T23:58:00Z,28.8850,-90.0250,10.0,10.4,125.0,10.7,'11111222,11111222,11111222' 
LOOP,urn:ioos:station:wmo:lopl1:1,2014-02-02T00:13:00Z,28.8850,-90.0250,10.0,10.3,127.0,10.6,'11111222,11111222,11111222' 
LOOP,urn:ioos:station:wmo:lopl1:1,2014-02-02T00:28:00Z,28.8850,-90.0250,10.0,10.6,125.0,10.8,'11111222,11111222,11111222' 
LOOP,urn:ioos:station:wmo:lopl1:1,2014-02-02T00:43:00Z,28.8850,-90.0250,10.0,11.6,127.0,12.0,'11111222,11111222,11111222' 
LOOP,urn:ioos:station:wmo:lopl1:1,2014-02-02T00:58:00Z,28.8850,-90.0250,10.0,11.3,126.0,11.7,'11111222,11111222,11111222' 
LOOP,urn:ioos:station:wmo:lopl1:1,2014-02-02T01:13:00Z,28.8850,-90.0250,10.0,11.6,126.0,11.8,'11111222,11111222,11111222' 
LOOP,urn:ioos:station:wmo:lopl1:1,2014-02-02T01:28:00Z,28.8850,-90.0250,10.0,11.5,126.0,11.7,'11111222,11111222,11111222' 
LOOP,urn:ioos:station:wmo:lopl1:1,2014-02-02T01:43:00Z,28.8850,-90.0250,10.0,11.3,124.0,11.4,'11111222,11111222,11111222' 
LOOP,urn:ioos:station:wmo:lopl1:1,2014-02-02T01:58:00Z,28.8850,-90.0250,10.0,11.3,125.0,11.5,'11111222,11111222,11111222' 
LOOP,urn:ioos:station:wmo:lopl1:1,2014-02-02T02:13:00Z,28.8850,-90.0250,10.0,11.3,129.0,11.4,'11111222,11111222,11111222' 
LOOP,urn:ioos:station:wmo:lopl1:1,2014-02-02T02:28:00Z,28.8850,-90.0250,10.0,11.2,128.0,11.5,'11111222,11111222,11111222' 
LOOP,urn:ioos:station:wmo:lopl1:1,2014-02-02T02:43:00Z,28.8850,-90.0250,10.0,11.3,127.0,11.5,'11111222,11111222,11111222' 
LOOP,urn:ioos:station:wmo:lopl1:1,2014-02-02T02:58:00Z,28.8850,-90.0250,10.0,11.9,127.0,13.3,'11111222,11111222,11111222' 
LOOP,urn:ioos:station:wmo:lopl1:1,2014-02-02T03:13:00Z,28.8850,-90.0250,10.0,11.5,131.0,12.1,'11111222,11111222,11111222' 
LOOP,urn:ioos:station:wmo:lopl1:1,2014-02-02T03:28:00Z,28.8850,-90.0250,10.0,11.6,135.0,12.4,'11111222,11111222,11111222' 
LOOP,urn:ioos:station:wmo:lopl1:1,2014-02-02T03:43:00Z,28.8850,-90.0250,10.0,11.4,141.0,12.4,'11111222,11111222,11111222' 
LOOP,urn:ioos:station:wmo:lopl1:1,2014-02-02T04:03:00Z,28.8850,-90.0250,10.0,11.8,141.0,13.3,'11111222,11111222,11111222' 
LOOP,urn:ioos:station:wmo:lopl1:1,2014-02-02T04:18:00Z,28.8850,-90.0250,10.0,11.1,140.0,12.4,'11111222,11111222,11111222' 
LOOP,urn:ioos:station:wmo:lopl1:1,2014-02-02T04:33:00Z,28.8850,-90.0250,10.0,11.2,142.0,11.8,'11111222,11111222,11111222' 
LOOP,urn:ioos:station:wmo:lopl1:1,2014-02-02T04:48:00Z,28.8850,-90.0250,10.0,11.7,142.0,13.7,'11111222,11111222,11111222' 
LOOP,urn:ioos:station:wmo:lopl1:1,2014-02-02T05:03:00Z,28.8850,-90.0250,10.0,11.3,142.0,12.4,'11111222,11111222,11111222' 
LOOP,urn:ioos:station:wmo:lopl1:1,2014-02-02T05:18:00Z,28.8850,-90.0250,10.0,10.7,143.0,12.0,'11111222,11111222,11111222' 
LOOP,urn:ioos:station:wmo:lopl1:1,2014-02-02T05:33:00Z,28.8850,-90.0250,10.0,10.8,144.0,11.4,'11111222,11111222,11111222' 
LOOP,urn:ioos:station:wmo:lopl1:1,2014-02-02T05:48:00Z,28.8850,-90.0250,10.0,10.4,145.0,11.7,'11111222,11111222,11111222' 
LOOP,urn:ioos:station:wmo:lopl1:1,2014-02-02T06:03:00Z,28.8850,-90.0250,10.0,8.4,143.0,9.3,'11111222,11111222,11111222' 
LOOP,urn:ioos:station:wmo:lopl1:1,2014-02-02T06:18:00Z,28.8850,-90.0250,10.0,9.0,143.0,9.7,'11111222,11111222,11111222' 
LOOP,urn:ioos:station:wmo:lopl1:1,2014-02-02T06:33:00Z,28.8850,-90.0250,10.0,9.3,144.0,10.1,'11111222,11111222,11111222' 
LOOP,urn:ioos:station:wmo:lopl1:1,2014-02-02T06:48:00Z,28.8850,-90.0250,10.0,9.2,136.0,9.5,'11111222,11111222,11111222' 
LOOP,urn:ioos:station:wmo:lopl1:1,2014-02-02T07:03:00Z,28.8850,-90.0250,10.0,9.7,135.0,10.3,'11111222,11111222,11111222' 
LOOP,urn:ioos:station:wmo:lopl1:1,2014-02-02T07:18:00Z,28.8850,-90.0250,10.0,10.0,137.0,10.4,'11111222,11111222,11111222' 
LOOP,urn:ioos:station:wmo:lopl1:1,2014-02-02T07:33:00Z,28.8850,-90.0250,10.0,8.9,139.0,9.3,'11111222,11111222,11111222' 
LOOP,urn:ioos:station:wmo:lopl1:1,2014-02-02T07:48:00Z,28.8850,-90.0250,10.0,8.8,145.0,9.5,'11111222,11111222,11111222' 
LOOP,urn:ioos:station:wmo:lopl1:1,2014-02-02T08:03:00Z,28.8850,-90.0250,10.0,8.8,143.0,8.9,'11111222,11111222,11111222' 
LOOP,urn:ioos:station:wmo:lopl1:1,2014-02-02T08:18:00Z,28.8850,-90.0250,10.0,8.2,144.0,8.9,'11111222,11111222,11111222' 
LOOP,urn:ioos:station:wmo:lopl1:1,2014-02-02T08:33:00Z,28.8850,-90.0250,10.0,7.8,144.0,8.4,'11111222,11111222,11111222' 
LOOP,urn:ioos:station:wmo:lopl1:1,2014-02-02T08:48:00Z,28.8850,-90.0250,10.0,7.5,147.0,7.9,'11111222,11111222,11111222' 
LOOP,urn:ioos:station:wmo:lopl1:1,2014-02-02T09:03:00Z,28.8850,-90.0250,10.0,7.6,145.0,8.2,'11111222,11111222,11111222' 
LOOP,urn:ioos:station:wmo:lopl1:1,2014-02-02T09:23:00Z,28.8850,-90.0250,10.0,7.4,138.0,8.1,'11111222,11111222,11111222' 
LOOP,urn:ioos:station:wmo:lopl1:1,2014-02-02T09:38:00Z,28.8850,-90.0250,10.0,7.5,132.0,7.9,'11111222,11111222,11111222' 
LOOP,urn:ioos:station:wmo:lopl1:1,2014-02-02T09:53:00Z,28.8850,-90.0250,10.0,7.2,127.0,7.7,'11111222,11111222,11111222' 
LOOP,urn:ioos:station:wmo:lopl1:1,2014-02-02T10:08:00Z,28.8850,-90.0250,10.0,7.8,130.0,8.1,'11111222,11111222,11111222' 
LOOP,urn:ioos:station:wmo:lopl1:1,2014-02-02T10:23:00Z,28.8850,-90.0250,10.0,8.5,136.0,8.7,'11111222,11111222,11111222' 
LOOP,urn:ioos:station:wmo:lopl1:1,2014-02-02T10:38:00Z,28.8850,-90.0250,10.0,8.6,132.0,8.9,'11111222,11111222,11111222' 
LOOP,urn:ioos:station:wmo:lopl1:1,2014-02-02T10:53:00Z,28.8850,-90.0250,10.0,8.7,135.0,9.0,'11111222,11111222,11111222' 
LOOP,urn:ioos:station:wmo:lopl1:1,2014-02-02T11:08:00Z,28.8850,-90.0250,10.0,8.3,137.0,8.6,'11111222,11111222,11111222' 
LOOP,urn:ioos:station:wmo:lopl1:1,2014-02-02T11:28:00Z,28.8850,-90.0250,10.0,8.8,135.0,9.4,'11111222,11111222,11111222' 
LOOP,urn:ioos:station:wmo:lopl1:1,2014-02-02T11:43:00Z,28.8850,-90.0250,10.0,9.2,136.0,10.7,'11111222,11111222,11111222' 
LOOP,urn:ioos:station:wmo:lopl1:1,2014-02-02T11:58:00Z,28.8850,-90.0250,10.0,8.6,130.0,9.1,'11111222,11111222,11111222' 
LOOP,urn:ioos:station:wmo:lopl1:1,2014-02-02T12:13:00Z,28.8850,-90.0250,10.0,8.6,137.0,9.0,'11111222,11111222,11111222' 
LOOP,urn:ioos:station:wmo:lopl1:1,2014-02-02T12:28:00Z,28.8850,-90.0250,10.0,8.4,133.0,8.9,'11111222,11111222,11111222' 
LOOP,urn:ioos:station:wmo:lopl1:1,2014-02-02T12:43:00Z,28.8850,-90.0250,10.0,9.1,136.0,9.4,'11111222,11111222,11111222' 
LOOP,urn:ioos:station:wmo:lopl1:1,2014-02-02T12:58:00Z,28.8850,-90.0250,10.0,9.7,136.0,9.9,'11111222,11111222,11111222' 
LOOP,urn:ioos:station:wmo:lopl1:1,2014-02-02T13:13:00Z,28.8850,-90.0250,10.0,9.7,135.0,9.9,'11111222,11111222,11111222' 
LOOP,urn:ioos:station:wmo:lopl1:1,2014-02-02T13:28:00Z,28.8850,-90.0250,10.0,9.5,139.0,9.9,'11111222,11111222,11111222' 
LOOP,urn:ioos:station:wmo:lopl1:1,2014-02-02T13:43:00Z,28.8850,-90.0250,10.0,10.4,143.0,10.6,'11111222,11111222,11111222' 
LOOP,urn:ioos:station:wmo:lopl1:1,2014-02-02T13:58:00Z,28.8850,-90.0250,10.0,10.1,143.0,10.4,'11111222,11111222,11111222' 
LOOP,urn:ioos:station:wmo:lopl1:1,2014-02-02T14:13:00Z,28.8850,-90.0250,10.0,9.3,141.0,9.6,'11111222,11111222,11111222' 
LOOP,urn:ioos:station:wmo:lopl1:1,2014-02-02T14:28:00Z,28.8850,-90.0250,10.0,9.4,133.0,9.7,'11111222,11111222,11111222' 
LOOP,urn:ioos:station:wmo:lopl1:1,2014-02-02T14:43:00Z,28.8850,-90.0250,10.0,10.4,137.0,10.8,'11111222,11111222,11111222' 
LOOP,urn:ioos:station:wmo:lopl1:1,2014-02-02T14:58:00Z,28.8850,-90.0250,10.0,11.4,138.0,11.8,'11111222,11111222,11111222' 
LOOP,urn:ioos:station:wmo:lopl1:1,2014-02-02T15:13:00Z,28.8850,-90.0250,10.0,12.2,143.0,12.4,'11111222,11111222,11111222' 
LOOP,urn:ioos:station:wmo:lopl1:1,2014-02-02T15:28:00Z,28.8850,-90.0250,10.0,12.1,144.0,12.4,'11111222,11111222,11111222' 
LOOP,urn:ioos:station:wmo:lopl1:1,2014-02-02T15:43:00Z,28.8850,-90.0250,10.0,11.9,144.0,12.3,'11111222,11111222,11111222' 
LOOP,urn:ioos:station:wmo:lopl1:1,2014-02-02T15:58:00Z,28.8850,-90.0250,10.0,11.7,144.0,12.1,'11111222,11111222,11111222' 
LOOP,urn:ioos:station:wmo:lopl1:1,2014-02-02T16:13:00Z,28.8850,-90.0250,10.0,11.9,145.0,12.6,'11111222,11111222,11111222' 
LOOP,urn:ioos:station:wmo:lopl1:1,2014-02-02T16:28:00Z,28.8850,-90.0250,10.0,12.1,140.0,12.5,'11111222,11111222,11111222' 
LOOP,urn:ioos:station:wmo:lopl1:1,2014-02-02T16:43:00Z,28.8850,-90.0250,10.0,12.6,142.0,13.0,'11111222,11111222,11111222' 
LOOP,urn:ioos:station:wmo:lopl1:1,2014-02-02T16:58:00Z,28.8850,-90.0250,10.0,11.6,141.0,11.9,'11111222,11111222,11111222' 
LOOP,urn:ioos:station:wmo:lopl1:1,2014-02-02T17:18:00Z,28.8850,-90.0250,10.0,11.0,139.0,11.2,'11111222,11111222,11111222' 
LOOP,urn:ioos:station:wmo:lopl1:1,2014-02-02T17:33:00Z,28.8850,-90.0250,10.0,10.6,142.0,10.8,'11111222,11111222,11111222' 
LOOP,urn:ioos:station:wmo:lopl1:1,2014-02-02T17:48:00Z,28.8850,-90.0250,10.0,10.0,145.0,10.2,'11111222,11111222,11111222' 
LOOP,urn:ioos:station:wmo:lopl1:1,2014-02-02T18:03:00Z,28.8850,-90.0250,10.0,9.9,146.0,10.2,'11111222,11111222,11111222' 
LOOP,urn:ioos:station:wmo:lopl1:1,2014-02-02T18:18:00Z,28.8850,-90.0250,10.0,9.7,151.0,10.2,'11111222,11111222,11111222' 
LOOP,urn:ioos:station:wmo:lopl1:1,2014-02-02T18:33:00Z,28.8850,-90.0250,10.0,10.4,152.0,10.8,'11111222,11111222,11111222' 
LOOP,urn:ioos:station:wmo:lopl1:1,2014-02-02T18:48:00Z,28.8850,-90.0250,10.0,10.1,155.0,10.4,'11111222,11111222,11111222' 
LOOP,urn:ioos:station:wmo:lopl1:1,2014-02-02T19:03:00Z,28.8850,-90.0250,10.0,9.5,158.0,10.0,'11111222,11111222,11111222' 
LOOP,urn:ioos:station:wmo:lopl1:1,2014-02-02T19:18:00Z,28.8850,-90.0250,10.0,8.9,158.0,9.6,'11111222,11111222,11111222' 
LOOP,urn:ioos:station:wmo:lopl1:1,2014-02-02T19:33:00Z,28.8850,-90.0250,10.0,8.1,156.0,8.6,'11111222,11111222,11111222' 
LOOP,urn:ioos:station:wmo:lopl1:1,2014-02-02T19:48:00Z,28.8850,-90.0250,10.0,10.1,163.0,11.9,'11111222,11111222,11111222' 
LOOP,urn:ioos:station:wmo:lopl1:1,2014-02-02T20:03:00Z,28.8850,-90.0250,10.0,10.1,165.0,12.5,'11111222,11111222,11111222' 
LOOP,urn:ioos:station:wmo:lopl1:1,2014-02-02T20:33:00Z,28.8850,-90.0250,10.0,8.7,167.0,9.8,'11111222,11111222,11111222' 
LOOP,urn:ioos:station:wmo:lopl1:1,2014-02-02T20:58:00Z,28.8850,-90.0250,10.0,8.5,169.0,9.2,'11111222,11111222,11111222' 
LOOP,urn:ioos:station:wmo:lopl1:1,2014-02-02T21:13:00Z,28.8850,-90.0250,10.0,9.0,166.0,9.9,'11111222,11111222,11111222' 
LOOP,urn:ioos:station:wmo:lopl1:1,2014-02-02T21:28:00Z,28.8850,-90.0250,10.0,9.6,169.0,10.5,'11111222,11111222,11111222' 
LOOP,urn:ioos:station:wmo:lopl1:1,2014-02-02T21:43:00Z,28.8850,-90.0250,10.0,9.8,172.0,10.6,'11111222,11111222,11111222' 
LOOP,urn:ioos:station:wmo:lopl1:1,2014-02-02T22:03:00Z,28.8850,-90.0250,10.0,10.6,172.0,11.1,'11111222,11111222,11111222' 
LOOP,urn:ioos:station:wmo:lopl1:1,2014-02-02T22:18:00Z,28.8850,-90.0250,10.0,10.7,170.0,11.2,'11111222,11111222,11111222' 
LOOP,urn:ioos:station:wmo:lopl1:1,2014-02-02T22:33:00Z,28.8850,-90.0250,10.0,11.1,171.0,12.1,'11111222,11111222,11111222' 
LOOP,urn:ioos:station:wmo:lopl1:1,2014-02-02T22:48:00Z,28.8850,-90.0250,10.0,10.7,172.0,11.4,'11111222,11111222,11111222' 
LOOP,urn:ioos:station:wmo:lopl1:1,2014-02-02T23:03:00Z,28.8850,-90.0250,10.0,10.7,173.0,11.4,'11111222,11111222,11111222' 
LOOP,urn:ioos:station:wmo:lopl1:1,2014-02-02T23:18:00Z,28.8850,-90.0250,10.0,10.8,175.0,11.4,'11111222,11111222,11111222' 
LOOP,urn:ioos:station:wmo:lopl1:1,2014-02-02T23:33:00Z,28.8850,-90.0250,10.0,11.1,174.0,11.6,'11111222,11111222,11111222' 
LOOP,urn:ioos:station:wmo:lopl1:1,2014-02-02T23:48:00Z,28.8850,-90.0250,10.0,11.1,175.0,11.7,'11111222,11111222,11111222' 
LOOP,urn:ioos:station:wmo:lopl1:1,2014-02-03T00:03:00Z,28.8850,-90.0250,10.0,10.7,178.0,11.4,'11111222,11111222,11111222' 
LOOP,urn:ioos:station:wmo:lopl1:1,2014-02-03T00:23:00Z,28.8850,-90.0250,10.0,9.5,180.0,10.3,'11111222,11111222,11111222' 
LOOP,urn:ioos:station:wmo:lopl1:1,2014-02-03T00:38:00Z,28.8850,-90.0250,10.0,9.2,181.0,9.9,'11111222,11111222,11111222' 
LOOP,urn:ioos:station:wmo:lopl1:1,2014-02-03T00:53:00Z,28.8850,-90.0250,10.0,9.3,183.0,10.0,'11111222,11111222,11111222' 
LOOP,urn:ioos:station:wmo:lopl1:1,2014-02-03T01:08:00Z,28.8850,-90.0250,10.0,9.4,185.0,9.8,'11111222,11111222,11111222' 
LOOP,urn:ioos:station:wmo:lopl1:1,2014-02-03T01:23:00Z,28.8850,-90.0250,10.0,9.7,184.0,10.4,'11111222,11111222,11111222' 
LOOP,urn:ioos:station:wmo:lopl1:1,2014-02-03T01:43:00Z,28.8850,-90.0250,10.0,9.3,187.0,9.7,'11111222,11111222,11111222' 
LOOP,urn:ioos:station:wmo:lopl1:1,2014-02-03T01:58:00Z,28.8850,-90.0250,10.0,9.1,190.0,9.7,'11111222,11111222,11111222' 
LOOP,urn:ioos:station:wmo:lopl1:1,2014-02-03T02:33:00Z,28.8850,-90.0250,10.0,8.8,197.0,9.3,'11111222,11111222,11111222' 